Location: Unspecified
(0.0000°N, 0.0000°E)
Time: 12:11:03
(UTC+00:00)

OBJECT M - Pass Details

Date: 27 February 2026
Orbit: 539 x 546 km, 97.4° (Epoch: 8 March)

Event Time Altitude Azimuth Distance (km) Brightness Sun altitude
Rises 04:32:16 0° 175° (S) 2,709 ? -24.8°
Reaches altitude 10° 04:34:25 10° 179° (S) 1,813 ? -24.3°
Enters shadow 04:35:54 22° 185° (S) 1,224 ? -23.9°
